Waarnemingen

Advertentie
Mijn weer
Leuchars, Groot Brittannië (3171): temperatuur & dauwpunt: 19.11.2017 01:00:00 - 25.11.2017 01:00:00 (GMT)Leuchars, Groot Brittannië (3171): windsnelheid & windstoten: 19.11.2017 01:00:00 - 25.11.2017 01:00:00 (GMT)Leuchars, Groot Brittannië (3171): windrichting: 19.11.2017 01:00:00 - 25.11.2017 01:00:00 (GMT)Leuchars, Groot Brittannië (3171): luchtdruk: 19.11.2017 01:00:00 - 25.11.2017 01:00:00 (GMT)Leuchars, Groot Brittannië (3171): zicht: 19.11.2017 01:00:00 - 25.11.2017 01:00:00 (GMT)Leuchars, Groot Brittannië (3171): Zonneschijnduur: 19.11.2017 01:00:00 - 25.11.2017 01:00:00 (GMT)Leuchars, Groot Brittannië (3171): neerslag: 19.11.2017 01:00:00 - 25.11.2017 01:00:00 (GMT)
Datum & Tijd tt [°C] td [°C] ff [km/u] ff [kn] fx [km/u] fx [kn] dd ppp [hPa] vv [km] sd [min] rr [mm]
25.11.2017 01:00:00 -1,5 -2,4 16 9 - - W 1006,5 10 0 0,0
25.11.2017 00:00:00 -0,4 -1,7 18 10 - - WZW 1006,6 10 - 0,0
24.11.2017 23:00:00 -0,5 -1,7 5 3 - - W 1006,3 10 0 0,0
24.11.2017 22:00:00 -0,6 -2,0 15 8 - - WZW 1006,0 10 0 0,0
24.11.2017 21:00:00 0,0 -1,0 24 13 - - WZW - 10 - -
24.11.2017 20:00:00 -0,3 -1,4 18 10 - - W 1005,7 10 0 0,0
24.11.2017 19:00:00 -0,3 -1,3 22 12 - - W 1005,8 10 0 0,0
24.11.2017 18:00:00 0,2 -0,6 18 10 - - WZW 1005,4 20 0 0,0
24.11.2017 17:00:00 0,4 -0,1 18 10 - - W 1005,1 10 0 0,0
24.11.2017 16:00:00 0,2 -0,3 16 9 - - W 1004,8 10 0 0,0
24.11.2017 15:00:00 0,7 0,0 24 13 - - W 1005,0 30 6 0,0
24.11.2017 14:00:00 2,7 0,7 31 17 - - WZW 1004,8 10 42 0,0
24.11.2017 13:00:00 2,2 1,4 28 15 - - WZW 1004,6 10 0 0,0
24.11.2017 12:00:00 2,0 0,1 21 11 - - W 1005,2 10 0 0,2
24.11.2017 11:00:00 1,4 -0,3 18 10 - - W 1005,0 10 18 0,0
24.11.2017 10:00:00 0,3 -1,2 22 12 - - W 1004,9 10 30 0,0
24.11.2017 09:00:00 -1,6 -2,5 15 8 - - WZW 1004,3 10 0 0,0
24.11.2017 08:00:00 -0,5 -1,5 15 8 - - W 1004,2 10 0 -
24.11.2017 07:00:00 -0,8 -1,7 16 9 - - WZW 1004,2 10 0 0,0
24.11.2017 06:00:00 -0,6 -2,0 18 10 - - WZW 1003,4 10 0 -
24.11.2017 05:00:00 -1,0 -2,4 15 8 - - WZW 1002,7 10 0 0,0
24.11.2017 04:00:00 0,0 -1,1 21 11 - - W 1002,0 10 0 0,0
24.11.2017 03:00:00 -0,8 -1,7 21 11 - - W 1001,9 10 0 0,0
24.11.2017 02:00:00 -0,2 -1,0 22 12 - - WZW 1001,2 10 0 0,0
24.11.2017 01:00:00 -0,1 -1,4 16 9 - - W 1000,6 10 0 0,0
24.11.2017 00:00:00 -0,1 -1,2 15 8 - - WZW 1000,2 10 - 0,0
23.11.2017 23:00:00 0,5 -0,8 13 7 - - W 999,8 10 0 0,0
23.11.2017 22:00:00 -0,1 -1,2 18 10 - - W 999,2 10 0 0,0
23.11.2017 21:00:00 0,2 -1,1 8 4 - - W 998,5 10 0 0,0
23.11.2017 20:00:00 0,7 -0,7 18 10 - - W 997,0 10 0 0,0
23.11.2017 19:00:00 1,6 0,1 24 13 - - W 995,7 10 0 0,0
23.11.2017 18:00:00 1,5 -0,1 16 9 - - W 994,9 10 0 0,0
23.11.2017 17:00:00 1,5 -0,3 18 10 - - W 993,6 10 0 0,0
23.11.2017 16:00:00 2,0 -1,2 16 9 - - W 992,2 10 6 0,0
23.11.2017 15:00:00 4,4 -0,1 21 11 - - WNW 990,1 10 60 0,0
23.11.2017 14:00:00 5,1 0,7 15 8 - - WNW 988,4 10 60 0,0
23.11.2017 13:00:00 4,9 1,1 16 9 - - NW 986,7 10 60 0,0
23.11.2017 12:00:00 4,7 1,3 18 10 - - W 985,2 10 54 0,0
23.11.2017 11:00:00 3,5 2,0 18 10 - - WZW 983,8 10 18 0,0
23.11.2017 10:00:00 4,0 1,9 13 7 - - W 982,7 10 24 0,0
23.11.2017 09:00:00 3,0 1,9 16 9 - - W 982,0 10 0 0,0
23.11.2017 08:00:00 2,4 1,9 13 7 - - W 981,0 10 0 0,0
23.11.2017 07:00:00 1,4 1,0 15 8 - - W 980,0 10 0 0,0
23.11.2017 06:00:00 1,5 1,1 13 7 - - WZW 979,3 10 0 0,0
23.11.2017 05:00:00 2,8 2,1 15 8 - - W 978,5 10 0 0,2
23.11.2017 04:00:00 2,8 2,4 13 7 - - W 978,1 10 0 0,8
23.11.2017 03:00:00 3,1 2,6 13 7 - - W 977,4 10 0 0,4
23.11.2017 02:00:00 3,1 2,6 9 5 - - WNW 977,8 10 0 0,4
23.11.2017 01:00:00 3,6 3,0 9 5 - - NW 978,1 10 0 -
23.11.2017 00:00:00 3,7 3,1 9 5 - - NNW 978,4 10 - 1,4
22.11.2017 23:00:00 3,9 3,5 9 5 - - NNW 978,6 10 0 1,4
22.11.2017 22:00:00 3,9 3,4 9 5 - - NNO 978,9 10 0 1,4
22.11.2017 21:00:00 4,1 3,6 11 6 - - NNO 979,3 10 0 0,4
22.11.2017 20:00:00 4,8 4,4 11 6 - - ONO 979,7 9 0 0,2
22.11.2017 19:00:00 5,0 4,7 9 5 - - N 980,6 10 0 0,2
22.11.2017 18:00:00 5,4 4,9 5 3 - - N 981,3 8 0 0,2
22.11.2017 17:00:00 5,6 5,2 8 4 - - NNO 981,3 7 0 0,6
22.11.2017 16:00:00 6,0 5,6 2 1 - - NNW 981,4 7 0 0,8
22.11.2017 15:00:00 6,3 6,0 8 4 - - N 981,6 7 0 0,4
22.11.2017 14:00:00 6,5 6,1 8 4 - - N 982,5 7 0 1,2
22.11.2017 13:00:00 6,6 6,2 4 2 - - ONO 983,4 6 0 1,0
22.11.2017 12:00:00 6,7 6,3 4 2 - - ONO 984,2 10 0 1,0
22.11.2017 11:00:00 6,7 6,2 2 1 - - W 985,5 10 0 1,2
22.11.2017 10:00:00 6,7 6,0 4 2 - - W 986,3 10 0 1,0
22.11.2017 09:00:00 7,0 5,6 9 5 - - WZW 987,2 10 0 0,2
22.11.2017 08:00:00 7,1 5,5 11 6 - - W 987,0 10 0 0,0
22.11.2017 07:00:00 7,3 5,5 21 11 - - W 987,6 10 0 0,0
22.11.2017 06:00:00 7,1 5,3 21 11 - - W 987,6 10 0 0,0
22.11.2017 05:00:00 7,5 5,2 21 11 - - W 987,8 10 0 0,0
22.11.2017 04:00:00 8,6 6,7 28 15 - - W 987,8 10 0 0,0
22.11.2017 03:00:00 9,0 6,3 24 13 50 27 W 988,1 10 0 0,0
22.11.2017 02:00:00 9,5 7,2 29 16 54 29 W 988,1 10 0 0,0
22.11.2017 01:00:00 10,9 9,2 37 20 59 32 WZW 987,6 10 0 0,0
22.11.2017 00:00:00 11,2 9,8 42 23 65 35 WZW 987,7 10 - 0,0
21.11.2017 23:00:00 12,0 9,6 50 27 68 37 WZW 987,3 10 0 -
21.11.2017 22:00:00 12,4 10,1 46 25 67 36 WZW 987,4 10 0 0,0
21.11.2017 21:00:00 12,7 10,4 41 22 57 31 WZW 988,0 10 0 0,0
21.11.2017 20:00:00 12,7 10,9 37 20 54 29 WZW 988,7 10 0 0,0
21.11.2017 19:00:00 12,1 10,8 26 14 - - WZW 990,0 10 0 0,0
21.11.2017 18:00:00 11,6 10,5 29 16 - - WZW 991,1 10 0 0,0
21.11.2017 17:00:00 11,1 10,5 28 15 - - WZW 992,4 10 0 0,0
21.11.2017 16:00:00 8,3 8,3 8 4 - - ZW 994,2 8 0 0,0
21.11.2017 15:00:00 8,0 8,0 2 1 - - W 995,9 0,9 0 2,6
21.11.2017 14:00:00 7,8 7,8 4 2 - - NO 997,4 1,0 0 0,6
21.11.2017 13:00:00 7,8 7,8 5 3 - - N 999,1 2,0 0 0,6
21.11.2017 12:00:00 7,6 7,6 2 1 - - W 1000,6 1,0 0 0,2
21.11.2017 11:00:00 7,5 7,5 2 1 - - WNW 1002,0 3,0 0 0,0
21.11.2017 10:00:00 7,0 7,0 2 1 - - W 1002,5 2,0 0 -
21.11.2017 09:00:00 6,8 6,8 2 1 - - W 1003,9 0,2 0 0,0
21.11.2017 08:00:00 6,8 6,8 5 3 - - WZW 1004,3 0,3 0 0,0
21.11.2017 07:00:00 7,0 7,0 4 2 - - WNW 1004,3 0,6 0 0,2
21.11.2017 06:00:00 7,1 7,1 2 1 - - NNW 1004,8 1,7 0 0,0
21.11.2017 05:00:00 7,0 6,9 4 2 - - N 1005,1 0,5 0 0,2
21.11.2017 04:00:00 6,9 6,8 2 1 - - NNW 1005,6 0,5 0 0,0
21.11.2017 03:00:00 6,9 6,8 2 1 - - N 1005,9 1,2 0 0,2
21.11.2017 02:00:00 6,8 6,7 5 3 - - W 1006,5 1,8 0 0,2
21.11.2017 01:00:00 7,0 6,8 4 2 - - W 1006,9 3,7 0 0,0
21.11.2017 00:00:00 7,1 6,9 2 1 - - W 1007,1 3,0 - 0,0
20.11.2017 23:00:00 8,6 8,3 16 9 - - O 1007,1 10 0 0,0
20.11.2017 22:00:00 8,5 8,3 21 11 - - OZO 1007,4 10 0 0,0
20.11.2017 21:00:00 8,4 8,2 21 11 - - O 1007,7 9 0 0,6
20.11.2017 20:00:00 7,3 7,0 4 2 - - W 1007,9 1,9 0 0,2
20.11.2017 19:00:00 8,0 7,7 9 5 - - ZZW 1007,6 10 0 0,0
20.11.2017 18:00:00 7,5 7,3 8 4 - - NNW 1007,3 10 0 0,0
20.11.2017 17:00:00 7,8 7,5 11 6 - - WNW 1007,2 10 0 0,0
20.11.2017 16:00:00 7,7 7,4 8 4 - - NNW 1006,6 10 0 -
20.11.2017 15:00:00 7,3 7,1 8 4 - - NW 1006,4 10 0 0,0
20.11.2017 14:00:00 7,1 6,9 9 5 - - NW 1005,9 5 0 0,0
20.11.2017 13:00:00 6,9 6,8 9 5 - - NW 1005,6 4,5 0 0,0
20.11.2017 12:00:00 6,5 6,4 9 5 - - NW 1005,7 1,5 0 0,2
20.11.2017 11:00:00 6,8 6,7 5 3 - - NW 1005,7 1,5 0 1,0
20.11.2017 10:00:00 6,4 6,3 8 4 - - N 1005,6 0,9 0 0,8
20.11.2017 09:00:00 6,2 5,9 2 1 - - Z 1006,0 7 0 0,6
20.11.2017 08:00:00 6,2 5,9 5 3 - - OZO 1006,2 10 0 0,4
20.11.2017 07:00:00 6,1 5,9 11 6 - - ZZO 1006,7 7 0 1,4
20.11.2017 06:00:00 6,0 5,8 15 8 - - ZO 1007,6 9 0 -
20.11.2017 05:00:00 5,9 5,4 24 13 - - ZO 1008,6 9 0 0,4
20.11.2017 04:00:00 5,4 5,0 22 12 - - ZO 1010,3 9 0 1,2
20.11.2017 03:00:00 5,2 4,7 21 11 - - ZO 1012,0 9 0 0,6
20.11.2017 02:00:00 5,1 4,5 16 9 - - OZO 1013,0 10 0 0,4
20.11.2017 01:00:00 4,4 4,4 11 6 - - OZO 1014,2 10 0 0,6
20.11.2017 00:00:00 2,7 2,5 5 3 - - NO 1015,2 4,0 - 1,2
19.11.2017 23:00:00 2,7 2,2 5 3 - - NNO 1016,4 10 0 0,6
19.11.2017 22:00:00 3,0 2,1 8 4 - - WZW 1017,4 10 0 0,4
19.11.2017 21:00:00 3,0 1,3 8 4 - - W 1018,3 10 0 0,0
19.11.2017 20:00:00 3,3 1,3 11 6 - - W 1018,7 10 0 0,0
19.11.2017 19:00:00 3,2 1,2 4 2 - - W 1019,2 10 0 0,0
19.11.2017 18:00:00 3,1 1,4 11 6 - - WZW 1019,7 10 0 0,0
19.11.2017 17:00:00 3,1 1,0 8 4 - - WZW 1020,0 10 0 0,0
19.11.2017 16:00:00 4,6 0,9 9 5 - - W 1020,3 10 0 0,0
19.11.2017 15:00:00 4,9 0,8 9 5 - - W 1020,7 10 0 0,0
19.11.2017 14:00:00 5,3 1,3 9 5 - - W 1020,9 10 0 0,0
19.11.2017 13:00:00 4,7 0,9 13 7 - - ZZW 1021,5 10 18 0,0
19.11.2017 12:00:00 6,2 0,4 15 8 - - W 1021,7 10 60 0,0
19.11.2017 11:00:00 4,6 1,1 13 7 - - WZW 1021,7 10 60 0,0
19.11.2017 10:00:00 2,7 0,2 15 8 - - W 1021,7 10 60 0,0
19.11.2017 09:00:00 1,1 -0,5 9 5 - - WZW 1021,6 10 0 0,0
19.11.2017 08:00:00 0,2 -2,3 8 4 - - WZW 1021,6 10 0 -
19.11.2017 07:00:00 1,6 -1,3 5 3 - - ZZW 1021,1 10 0 0,0
19.11.2017 06:00:00 3,3 -0,5 15 8 - - W 1020,9 10 0 0,0
19.11.2017 05:00:00 2,9 -0,4 16 9 - - WNW 1020,8 10 0 0,0
19.11.2017 04:00:00 3,4 -0,7 13 7 - - WNW 1020,6 10 0 0,0
19.11.2017 03:00:00 3,4 -0,5 16 9 - - W 1020,8 10 0 0,0
19.11.2017 02:00:00 4,5 -0,7 22 12 - - WNW 1020,1 10 0 0,0
19.11.2017 01:00:00 2,7 -0,8 15 8 - - W 1019,7 10 0 0,0

tt = temperatuur
td = dauwpunt
ff = windsnelheid
fx = windstoten
dd = windrichting
ppp = luchtdruk
vv = zicht
sd = Zonneschijnduur
rr = neerslag

Weerstations in de omgeving